Simultaneous Nadir Overpasses (SNOs) Predictions

Prediction of SNOs between GOES-16 and METOP-A Satellite Orbit:

Table of predicted SNOs for the next 14.0 days since TLE Epoch: 2/20/2021
Index Date Time (GOES-16) GOES-16 Lat,Lon METOP-A Lat,Lon Distance(km) Time Diff (sec)
1 02/21/2021 13:30:36 0.01, -75.20 0.68, -78.21 342.72 80
2 02/22/2021 13:12:36 0.01, -75.21 -0.43, -73.23 224.83 80
3 02/24/2021 01:31:36 -0.00, -75.18 -0.57, -77.87 305.77 80
4 02/25/2021 01:08:16 -0.00, -75.19 0.48, -72.88 262.05 80
5 02/26/2021 13:27:08 -0.00, -75.24 0.50, -77.49 257.02 80
6 02/27/2021 13:09:09 -0.00, -75.25 -0.61, -72.52 311.24 80
7 03/01/2021 01:28:09 0.00, -75.23 -0.40, -77.15 218.13 80
8 03/02/2021 01:04:49 0.00, -75.25 0.66, -72.17 350.39 80
9 03/03/2021 13:23:41 -0.00, -75.30 0.32, -76.77 167.74 80
10 03/04/2021 13:05:41 -0.00, -75.32 -0.79, -71.80 401.04 80
11 03/06/2021 01:24:42 0.00, -75.31 -0.21, -76.44 127.65 80
